Date String (YYYY-MM-DD hh:mm:ss) UTC,Instrument flags,absolute air pressure of the measurement (hPa),sample flow rate (lpm),inlet stack bypass flow (lpm),air temperature of the measurement (°C),ambient temperature measured by the external sensor (°C),aerosol sample conditioner tube jacket temperature (°C),OPC LED temperature (°C),internal box temperature (°C),relative humidity of the measurement (%),span deviation,mass concentration of particles derived from Lorenz-Mie calculation of OPC scattering (μg/m³),mass concentration of particles derived from Lorenz-Mie calculation of OPC scattering (μg/m³),mass concentration of particles derived from Lorenz-Mie calculation of OPC scattering (μg/m³)
DateTimeUTC,F1_M11,P_M11,Q1_M11,Q2_M11,T1_M11,T2_M11,T3_M11,T4_M11,T5_M11,U1_M11,ZSPAN_M11,X0_M11,X2_M11,X1_M11
2024-01-03 00:00:00,SystemResetWarning,0830.4,5.02,000.00,026.3,025.2,000.0,034.6,027.5,11.3,0003.7,0020.10,0009.09,0008.00
2024-01-03 00:01:00,SystemResetWarning,0830.4,5.00,000.00,026.3,025.2,000.0,034.6,027.5,11.3,0003.8,0021.19,0009.05,0007.98
2024-01-03 00:02:00,SystemResetWarning,0830.4,4.99,000.00,026.3,025.2,000.0,034.6,027.5,11.3,0004.1,0021.15,0009.03,0007.96
2024-01-03 00:03:00,SystemResetWarning,0830.4,4.99,000.00,026.2,025.2,000.0,034.5,027.5,11.3,0004.4,0022.12,0009.09,0007.96
2024-01-03 00:04:00,SystemResetWarning,0830.4,5.00,000.00,026.2,025.2,000.0,034.5,027.5,11.3,0004.4,0022.38,0009.15,0007.96
2024-01-03 00:05:00,SystemResetWarning,0830.4,5.01,000.00,026.2,025.1,000.0,034.5,027.5,11.3,0004.5,0021.93,0009.15,0007.96
2024-01-03 00:06:00,SystemResetWarning,0830.4,5.00,000.00,026.2,025.1,000.0,034.5,027.4,11.3,0004.6,0021.56,0009.15,0007.96
2024-01-03 00:07:00,SystemResetWarning,0830.4,4.99,000.00,026.2,025.1,000.0,034.5,027.4,11.3,0004.9,0022.27,0009.12,0007.95
2024-01-03 00:08:00,SystemResetWarning,0830.5,5.00,000.00,026.2,025.1,000.0,034.5,027.4,11.3,0004.7,0022.05,0009.09,0007.94
2024-01-03 00:09:00,SystemResetWarning,0830.4,5.00,000.00,026.2,025.1,000.0,034.5,027.4,11.3,0004.5,0022.20,0009.14,0007.93
2024-01-03 00:10:00,SystemResetWarning,0830.7,5.00,000.00,026.2,025.1,000.0,034.5,027.4,11.3,0004.3,0022.64,0009.11,0007.94
2024-01-03 00:11:00,SystemResetWarning,0830.9,5.00,000.00,026.2,025.0,000.0,034.5,027.4,11.3,0004.4,0022.64,0009.07,0007.92
2024-01-03 00:12:00,SystemResetWarning,0830.8,5.01,000.00,026.2,025.0,000.0,034.5,027.4,11.3,0004.3,0020.98,0009.02,0007.91
2024-01-03 00:13:00,SystemResetWarning,0830.4,5.01,000.00,026.1,025.0,000.0,034.5,027.4,11.3,0004.2,0019.90,0008.99,0007.90
2024-01-03 00:14:00,SystemResetWarning,0830.4,5.00,000.00,026.1,024.9,000.0,034.5,027.3,11.3,0004.2,0018.85,0008.96,0007.90
2024-01-03 00:15:00,SystemResetWarning,0830.5,4.99,000.00,026.1,024.9,000.0,034.5,027.3,11.3,0004.6,0018.30,0008.88,0007.88
2024-01-03 00:16:00,SystemResetWarning,0830.5,4.99,000.00,026.1,024.9,000.0,034.4,027.3,11.3,0004.9,0017.88,0008.84,0007.87
2024-01-03 00:17:00,SystemResetWarning,0830.6,5.02,000.00,026.1,024.9,000.0,034.4,027.3,11.3,0005.1,0019.02,0008.81,0007.86
2024-01-03 00:18:00,SystemResetWarning,0830.5,5.00,000.00,026.1,024.9,000.0,034.4,027.3,11.4,0005.0,0018.39,0008.81,0007.86
2024-01-03 00:19:00,SystemResetWarning,0830.5,4.99,000.00,026.1,024.8,000.0,034.4,027.3,11.4,0005.1,0018.72,0008.85,0007.88
2024-01-03 00:20:00,SystemResetWarning,0830.5,4.99,000.00,026.0,024.8,000.0,034.4,027.3,11.4,0005.2,0018.39,0008.85,0007.89
2024-01-03 00:21:00,SystemResetWarning,0830.5,5.00,000.00,026.0,024.8,000.0,034.4,027.3,11.4,0005.1,0018.60,0008.82,0007.88
2024-01-03 00:22:00,SystemResetWarning,0830.6,5.01,000.00,026.0,024.8,000.0,034.4,027.3,11.4,0005.2,0019.63,0008.85,0007.87
2024-01-03 00:23:00,SystemResetWarning,0830.7,5.01,000.00,026.0,024.8,000.0,034.4,027.3,11.3,0005.2,0020.00,0008.87,0007.86
2024-01-03 00:24:00,SystemResetWarning,0830.9,4.98,000.00,026.0,024.7,000.0,034.4,027.3,11.4,0005.4,0021.02,0008.88,0007.86
2024-01-03 00:25:00,SystemResetWarning,0830.5,5.00,000.00,026.0,024.7,000.0,034.4,027.2,11.4,0005.3,0021.20,0008.87,0007.83
2024-01-03 00:26:00,SystemResetWarning,0830.6,5.01,000.00,026.0,024.7,000.0,034.3,027.2,11.4,0005.1,0020.64,0008.81,0007.80
2024-01-03 00:27:00,SystemResetWarning,0830.6,5.00,000.00,026.0,024.7,000.0,034.3,027.2,11.4,0005.0,0020.68,0008.74,0007.75
2024-01-03 00:28:00,SystemResetWarning,0830.6,5.00,000.00,025.9,024.7,000.0,034.3,027.2,11.5,0004.8,0020.03,0008.69,0007.70
2024-01-03 00:29:00,SystemResetWarning,0830.6,4.99,000.00,025.9,024.6,000.0,034.3,027.2,11.4,0004.8,0020.20,0008.70,0007.65
2024-01-03 00:30:00,SystemResetWarning,0830.6,5.01,000.00,025.9,024.6,000.0,034.3,027.1,11.4,0004.9,0019.92,0008.66,0007.60
2024-01-03 00:31:00,SystemResetWarning,0830.6,5.02,000.00,025.9,024.6,000.0,034.3,027.1,11.5,0005.0,0020.34,0008.64,0007.58
2024-01-03 00:32:00,SystemResetWarning,0830.5,5.00,000.00,025.9,024.6,000.0,034.3,027.1,11.5,0005.0,0021.29,0008.61,0007.57
2024-01-03 00:33:00,SystemResetWarning,0830.6,4.99,000.00,025.9,024.5,000.0,034.3,027.1,11.5,0005.1,0019.70,0008.59,0007.57
2024-01-03 00:34:00,SystemResetWarning,0830.6,5.00,000.00,025.8,024.5,000.0,034.2,027.1,11.5,0005.1,0020.49,0008.58,0007.57
2024-01-03 00:35:00,SystemResetWarning,0830.6,5.01,000.00,025.8,024.5,000.0,034.2,027.0,11.5,0004.7,0020.09,0008.52,0007.52
2024-01-03 00:36:00,SystemResetWarning,0830.6,5.00,000.00,025.8,024.5,000.0,034.2,027.0,11.5,0004.7,0019.44,0008.43,0007.48
2024-01-03 00:37:00,SystemResetWarning,0830.6,4.99,000.00,025.8,024.4,000.0,034.2,027.0,11.6,0005.2,0019.35,0008.39,0007.48
2024-01-03 00:38:00,SystemResetWarning,0830.6,5.00,000.00,025.8,024.4,000.0,034.2,027.0,11.6,0005.1,0019.80,0008.41,0007.50
2024-01-03 00:39:00,SystemResetWarning,0830.6,5.01,000.00,025.8,024.4,000.0,034.2,027.0,11.6,0005.4,0019.73,0008.48,0007.56
2024-01-03 00:40:00,SystemResetWarning,0830.7,5.01,000.00,025.8,024.4,000.0,034.2,027.0,11.6,0005.4,0019.91,0008.51,0007.63
2024-01-03 00:41:00,SystemResetWarning,0830.6,4.98,000.00,025.7,024.4,000.0,034.1,027.0,11.6,0004.9,0020.14,0008.50,0007.67
2024-01-03 00:42:00,SystemResetWarning,0830.6,4.99,000.00,025.7,024.4,000.0,034.1,027.0,11.6,0004.7,0019.57,0008.42,0007.64
2024-01-03 00:43:00,SystemResetWarning,0830.6,5.00,000.00,025.7,024.4,000.0,034.1,026.9,11.6,0004.8,0018.03,0008.38,0007.61
2024-01-03 00:44:00,SystemResetWarning,0830.7,5.01,000.00,025.7,024.3,000.0,034.1,027.0,11.6,0004.3,0017.95,0008.35,0007.58
2024-01-03 00:45:00,SystemResetWarning,0830.7,5.00,000.00,025.7,024.3,000.0,034.1,027.0,11.6,0004.2,0017.71,0008.32,0007.57
2024-01-03 00:46:00,SystemResetWarning,0830.6,5.00,000.00,025.7,024.3,000.0,034.1,026.9,11.7,0004.4,0016.61,0008.29,0007.57
2024-01-03 00:47:00,SystemResetWarning,0830.7,5.00,000.00,025.6,024.3,000.0,034.1,026.9,11.7,0004.3,0016.74,0008.34,0007.62
2024-01-03 00:48:00,SystemResetWarning,0830.7,5.00,000.00,025.6,024.3,000.0,034.1,026.9,11.7,0004.1,0016.75,0008.33,0007.63
2024-01-03 00:49:00,SystemResetWarning,0830.7,5.01,000.00,025.6,024.3,000.0,034.0,026.9,11.7,0003.7,0016.20,0008.29,0007.61
2024-01-03 00:50:00,SystemResetWarning,0830.7,4.99,000.00,025.6,024.2,000.0,034.0,026.9,11.7,0003.3,0015.58,0008.20,0007.56
2024-01-03 00:51:00,SystemResetWarning,0830.7,4.99,000.00,025.6,024.2,000.0,034.0,026.8,11.7,0002.9,0015.16,0008.13,0007.51
2024-01-03 00:52:00,SystemResetWarning,0830.7,5.00,000.00,025.6,024.2,000.0,034.0,026.8,11.7,0001.2,0013.81,0008.10,0007.47
2024-01-03 00:53:00,SystemResetWarning,0830.8,5.01,000.00,025.5,024.2,000.0,034.0,026.8,11.6,0000.6,0014.22,0008.16,0007.52
2024-01-03 00:54:00,SystemResetWarning,0830.7,5.01,000.00,025.5,024.1,000.0,034.0,026.8,11.6,0000.0,0014.04,0008.19,0007.56
2024-01-03 00:55:00,SystemResetWarning,0830.7,5.01,000.00,025.5,024.1,000.0,033.9,026.7,11.7,0002.4,0014.32,0008.27,0007.61
2024-01-03 00:56:00,SystemResetWarning,0830.7,4.99,000.00,025.5,024.1,000.0,033.9,026.7,11.7,0004.2,0014.10,0008.31,0007.65
2024-01-03 00:57:00,SystemResetWarning,0830.7,4.99,000.00,025.5,024.1,000.0,033.9,026.7,11.7,0004.3,0014.70,0008.38,0007.69
2024-01-03 00:58:00,SystemResetWarning,0830.7,5.01,000.00,025.4,024.1,000.0,033.9,026.7,11.7,0004.5,0015.03,0008.46,0007.71
2024-01-03 00:59:00,SystemResetWarning,0830.6,5.00,000.00,025.4,024.0,000.0,033.9,026.7,11.8,0004.5,0016.49,0008.52,0007.73
